Powrót do katalogu

TANSEI 3

MS-T3

AktywnyNaukaUNKNOWN
NORAD 9841·PAYLOAD·🇯🇵 Japan

Wystrzelony Feb 19, 1977 z Uchinoura Space Center

Loading…

Następne Przeloty (najbliższe 24 godziny)

TLE

ŚwieżeSource: Space-Track

Epoka: Sep 14, 2026, 10:26 UTC

1 09841U 77012A   26257.43531475 -.00000055  00000-0 -48022-4 0  9995
2 09841  65.7575  69.4760 1734701 232.4914 110.5593 10.73920546943297

Śledź TANSEI 3 w czasie rzeczywistym z AllMySat

Download on the App Store